Вернуться в каталог

ARIANE 5 DEB

SYLDA

АктивенHEO
NORAD 57215·DEBRIS·🇫🇷 France

Запущен Jul 5, 2023 с Guiana Space Centre

Loading…

Ближайшие Пролёты (ближайшие 24 часа)

TLE

СвежийSource: Space-Track

Эпоха: Sep 14, 2026, 13:27 UTC

1 57215U 23093C   26257.56054777  .00008090  00000-0  30824-2 0  9996
2 57215   2.8398 250.4119 6749634 213.2940  75.2801  2.95524844 30395

Отслеживайте ARIANE 5 DEB в реальном времени с AllMySat

Download on the App Store